QPF
0.00 0.00 0.00 0.00 0.00 0.00 0.00 0.00 0.00 0.00 0.00 0.00 0.00 0.00 0.00 0.00 0.01 0.00 0.00 0.01 0.01 0.01 0.01 0.01 0.01 0.01 0.02 0.01 0.01 0.01 0.02 0.02 0.03 0.03 0.03 0.02 0.02 0.01 0.01 0.01 0.01 0.01 0.02 0.02
0.00 0.00 0.00 0.00 0.00 0.00 0.00 0.00 0.00 0.00 0.00 0.00 0.00 0.00 0.00 0.00 0.01 0.01 0.01 0.01 0.01 0.01 0.01 0.01 0.01 0.01 0.02 0.02 0.01 0.01 0.01 0.02 0.03 0.04 0.02 0.01 0.02 0.01 0.01 0.01 0.01 0.01 0.01 0.01
0.00 0.00 0.00 0.00 0.00 0.00 0.00 0.00 0.00 0.00 0.00 0.00 0.00 0.00 0.00 0.00 0.00 0.01 0.02 0.02 0.02 0.02 0.02 0.02 0.01 0.02 0.02 0.02 0.02 0.01 0.01 0.01 0.01 0.01 0.01 0.01 0.01 0.01 0.01 0.01 0.01 0.01 0.01 0.01
0.00 0.01 0.01 0.00 0.00 0.00 0.00 0.00 0.00 0.00 0.00 0.00 0.01 0.01 0.00 0.00 0.00 0.00 0.01 0.01 0.02 0.02 0.03 0.04 0.04 0.04 0.04 0.03 0.02 0.02 0.01 0.01 0.00 0.00 0.00 0.00 0.01 0.02 0.03 0.02 0.02 0.01 0.01 0.01
0.01 0.01 0.00 0.00 0.00 0.00 0.00 0.00 0.00 0.00 0.00 0.00 0.01 0.01 0.01 0.01 0.00 0.01 0.01 0.02 0.02 0.01 0.01 0.01 0.01 0.02 0.03 0.03 0.02 0.02 0.02 0.02 0.01 0.01 0.01 0.01 0.01 0.03 0.03 0.03 0.02 0.02 0.01 0.02
0.01 0.01 0.01 0.00 0.00 0.00 0.00 0.00 0.00 0.00 0.00 0.00 0.00 0.02 0.01 0.01 0.01 0.01 0.01 0.02 0.02 0.02 0.02 0.03 0.02 0.02 0.03 0.03 0.03 0.03 0.02 0.02 0.02 0.02 0.02 0.02 0.01 0.02 0.03 0.03 0.03 0.03 0.02 0.02
0.01 0.01 0.01 0.00 0.00 0.00 0.01 0.01 0.00 0.00 0.00 0.00 0.01 0.01 0.01 0.00 0.00 0.00 0.01 0.01 0.02 0.02 0.03 0.03 0.03 0.03 0.03 0.03 0.03 0.04 0.04 0.03 0.03 0.02 0.02 0.02 0.02 0.02 0.03 0.03 0.04 0.04 0.03 0.02
0.01 0.01 0.01 0.00 0.00 0.00 0.00 0.00 0.00 0.00 0.00 0.00 0.01 0.01 0.00 0.00 0.01 0.01 0.01 0.01 0.02 0.02 0.02 0.02 0.02 0.02 0.02 0.03 0.03 0.03 0.04 0.04 0.04 0.03 0.02 0.02 0.02 0.02 0.02 0.02 0.02 0.03 0.03 0.02
0.01 0.01 0.00 0.00 0.00 0.00 0.00 0.00 0.00 0.00 0.00 0.01 0.01 0.01 0.01 0.01 0.02 0.01 0.02 0.02 0.02 0.02 0.02 0.02 0.02 0.02 0.02 0.02 0.03 0.03 0.03 0.03 0.03 0.03 0.03 0.03 0.03 0.03 0.02 0.01 0.01 0.01 0.01 0.01
0.01 0.01 0.00 0.00 0.00 0.00 0.00 0.00 0.00 0.01 0.01 0.02 0.01 0.01 0.02 0.05 0.04 0.03 0.03 0.03 0.02 0.02 0.02 0.01 0.02 0.02 0.02 0.02 0.03 0.04 0.03 0.02 0.02 0.02 0.02 0.02 0.03 0.03 0.02 0.01 0.02 0.02 0.01 0.01
0.02 0.01 0.01 0.01 0.01 0.00 0.00 0.00 0.00 0.01 0.01 0.01 0.01 0.01 0.03 0.04 0.03 0.03 0.03 0.03 0.02 0.02 0.02 0.02 0.03 0.02 0.02 0.02 0.02 0.03 0.03 0.03 0.02 0.02 0.02 0.02 0.01 0.01 0.01 0.01 0.01 0.01 0.02 0.02
0.02 0.01 0.01 0.00 0.00 0.00 0.00 0.00 0.00 0.01 0.01 0.02 0.02 0.02 0.03 0.03 0.04 0.04 0.04 0.04 0.03 0.03 0.02 0.03 0.04 0.03 0.02 0.02 0.02 0.02 0.02 0.02 0.02 0.02 0.02 0.02 0.02 0.02 0.01 0.01 0.01 0.01 0.01 0.02
0.01 0.00 0.00 0.00 0.00 0.01 0.01 0.01 0.00 0.01 0.02 0.03 0.03 0.04 0.03 0.02 0.02 0.01 0.02 0.03 0.03 0.03 0.03 0.03 0.03 0.03 0.02 0.01 0.02 0.02 0.02 0.02 0.02 0.02 0.02 0.01 0.01 0.01 0.01 0.01 0.01 0.01 0.01 0.02
0.00 0.00 0.00 0.00 0.00 0.00 0.00 0.01 0.01 0.01 0.02 0.03 0.02 0.02 0.02 0.02 0.01 0.01 0.01 0.02 0.02 0.01 0.01 0.02 0.02 0.02 0.01 0.01 0.01 0.01 0.01 0.00 0.01 0.01 0.02 0.01 0.01 0.01 0.01 0.02 0.02 0.02 0.02 0.02
0.00 0.00 0.00 0.00 0.00 0.00 0.00 0.01 0.01 0.01 0.02 0.02 0.02 0.02 0.02 0.01 0.01 0.01 0.01 0.01 0.01 0.01 0.01 0.02 0.02 0.01 0.01 0.01 0.01 0.01 0.01 0.00 0.00 0.01 0.01 0.01 0.01 0.02 0.02 0.02 0.02 0.03 0.02 0.03
0.00 0.00 0.00 0.00 0.00 0.00 0.01 0.01 0.02 0.03 0.03 0.02 0.01 0.02 0.02 0.01 0.02 0.02 0.01 0.01 0.01 0.01 0.02 0.02 0.02 0.02 0.01 0.01 0.01 0.01 0.01 0.01 0.01 0.01 0.01 0.02 0.02 0.03 0.02 0.03 0.03 0.03 0.03 0.03
0.00 0.00 0.00 0.00 0.00 0.01 0.02 0.02 0.03 0.03 0.02 0.01 0.01 0.02 0.01 0.01 0.02 0.02 0.02 0.01 0.02 0.02 0.03 0.03 0.03 0.02 0.02 0.02 0.02 0.02 0.02 0.02 0.01 0.01 0.01 0.01 0.02 0.02 0.02 0.02 0.02 0.02 0.03 0.03
0.00 0.00 0.00 0.00 0.01 0.02 0.02 0.02 0.03 0.02 0.02 0.01 0.01 0.01 0.01 0.01 0.02 0.02 0.02 0.03 0.02 0.02 0.03 0.04 0.04 0.04 0.03 0.03 0.03 0.04 0.04 0.03 0.03 0.02 0.02 0.02 0.02 0.02 0.02 0.01 0.01 0.01 0.01 0.03
0.01 0.00 0.00 0.00 0.01 0.01 0.01 0.01 0.02 0.02 0.02 0.02 0.01 0.02 0.02 0.02 0.01 0.02 0.02 0.03 0.03 0.02 0.02 0.02 0.03 0.03 0.04 0.04 0.04 0.05 0.06 0.06 0.06 0.04 0.03 0.03 0.02 0.02 0.01 0.01 0.01 0.01 0.01 0.01
0.01 0.01 0.01 0.01 0.01 0.02 0.02 0.02 0.02 0.01 0.01 0.01 0.01 0.02 0.02 0.02 0.02 0.02 0.01 0.01 0.02 0.01 0.01 0.01 0.02 0.03 0.04 0.04 0.05 0.05 0.05 0.05 0.04 0.04 0.04 0.03 0.03 0.02 0.01 0.01 0.01 0.00 0.00 0.00
0.00 0.01 0.01 0.01 0.02 0.02 0.03 0.04 0.03 0.02 0.02 0.02 0.02 0.02 0.03 0.02 0.02 0.02 0.02 0.02 0.01 0.01 0.01 0.01 0.01 0.02 0.02 0.02 0.03 0.03 0.03 0.03 0.03 0.03 0.02 0.03 0.03 0.02 0.02 0.01 0.01 0.00 0.00 0.00
0.01 0.01 0.01 0.01 0.02 0.02 0.02 0.03 0.03 0.03 0.03 0.03 0.02 0.02 0.02 0.01 0.01 0.02 0.02 0.02 0.01 0.01 0.01 0.00 0.00 0.01 0.01 0.01 0.02 0.02 0.02 0.02 0.02 0.02 0.01 0.01 0.02 0.02 0.02 0.01 0.00 0.00 0.01 0.01
0.01 0.01 0.01 0.01 0.01 0.02 0.02 0.02 0.02 0.03 0.03 0.03 0.03 0.03 0.02 0.01 0.02 0.02 0.01 0.02 0.02 0.01 0.01 0.01 0.01 0.01 0.01 0.01 0.01 0.01 0.01 0.01 0.01 0.01 0.01 0.01 0.01 0.01 0.01 0.01 0.01 0.00 0.00 0.00
0.00 0.00 0.00 0.00 0.01 0.01 0.01 0.01 0.01 0.01 0.02 0.02 0.02 0.02 0.02 0.02 0.01 0.01 0.01 0.02 0.02 0.01 0.01 0.01 0.01 0.01 0.01 0.01 0.02 0.01 0.01 0.01 0.01 0.01 0.01 0.01 0.01 0.01 0.01 0.01 0.01 0.01 0.00 0.00
0.00 0.00 0.00 0.01 0.01 0.01 0.01 0.01 0.01 0.01 0.01 0.01 0.01 0.01 0.01 0.01 0.01 0.01 0.01 0.02 0.02 0.02 0.02 0.02 0.02 0.02 0.02 0.02 0.01 0.01 0.01 0.01 0.00 0.00 0.00 0.01 0.01 0.00 0.01 0.01 0.01 0.01 0.00 0.00
0.01 0.01 0.00 0.01 0.01 0.01 0.01 0.01 0.01 0.01 0.01 0.01 0.02 0.01 0.01 0.01 0.01 0.01 0.01 0.01 0.01 0.02 0.02 0.02 0.02 0.02 0.01 0.01 0.01 0.01 0.01 0.01 0.01 0.01 0.00 0.00 0.00 0.00 0.00 0.01 0.01 0.01 0.00 0.00
0.01 0.01 0.01 0.01 0.01 0.02 0.02 0.02 0.02 0.01 0.02 0.02 0.02 0.02 0.02 0.02 0.02 0.01 0.01 0.01 0.01 0.01 0.02 0.02 0.02 0.01 0.01 0.01 0.01 0.01 0.01 0.01 0.01 0.01 0.01 0.01 0.00 0.00 0.00 0.01 0.01 0.01 0.01 0.01
MSLP
1007.07 1007.33 1007.51 1007.65 1007.75 1007.87 1008.01 1008.20 1008.45 1008.77 1009.15 1009.57 1010.04 1010.52 1011.01 1011.49 1011.96 1012.41 1012.85 1013.28 1013.69 1014.08 1014.46 1014.82 1015.15 1015.44 1015.68 1015.87 1015.99 1016.05 1016.04 1015.96 1015.82 1015.63 1015.41 1015.15 1014.88 1014.61 1014.35 1014.11 1013.91 1013.73 1013.58 1013.46
1007.42 1007.62 1007.72 1007.73 1007.69 1007.65 1007.65 1007.72 1007.88 1008.15 1008.51 1008.96 1009.47 1010.00 1010.54 1011.06 1011.56 1012.03 1012.47 1012.90 1013.31 1013.72 1014.13 1014.53 1014.92 1015.29 1015.62 1015.88 1016.08 1016.20 1016.24 1016.19 1016.08 1015.90 1015.67 1015.41 1015.13 1014.84 1014.57 1014.30 1014.06 1013.84 1013.64 1013.47
1007.71 1007.87 1007.88 1007.77 1007.59 1007.41 1007.27 1007.22 1007.30 1007.52 1007.88 1008.35 1008.90 1009.49 1010.09 1010.67 1011.21 1011.71 1012.17 1012.60 1013.02 1013.44 1013.87 1014.30 1014.74 1015.15 1015.54 1015.86 1016.11 1016.28 1016.35 1016.34 1016.24 1016.07 1015.85 1015.59 1015.31 1015.03 1014.75 1014.47 1014.21 1013.96 1013.72 1013.51
1007.88 1007.99 1007.93 1007.72 1007.43 1007.12 1006.87 1006.73 1006.74 1006.93 1007.28 1007.78 1008.38 1009.04 1009.71 1010.35 1010.95 1011.50 1011.98 1012.44 1012.87 1013.30 1013.73 1014.18 1014.64 1015.09 1015.50 1015.86 1016.13 1016.32 1016.41 1016.41 1016.32 1016.16 1015.94 1015.69 1015.43 1015.15 1014.88 1014.61 1014.34 1014.08 1013.83 1013.58
1007.85 1007.92 1007.80 1007.52 1007.15 1006.76 1006.44 1006.24 1006.22 1006.39 1006.75 1007.29 1007.95 1008.67 1009.42 1010.13 1010.80 1011.39 1011.92 1012.40 1012.86 1013.30 1013.74 1014.20 1014.67 1015.12 1015.54 1015.91 1016.19 1016.38 1016.46 1016.45 1016.36 1016.19 1015.98 1015.73 1015.48 1015.22 1014.96 1014.71 1014.46 1014.20 1013.95 1013.69
1007.56 1007.59 1007.44 1007.13 1006.73 1006.31 1005.97 1005.76 1005.73 1005.92 1006.31 1006.89 1007.60 1008.39 1009.21 1009.99 1010.72 1011.38 1011.96 1012.48 1012.96 1013.42 1013.88 1014.35 1014.81 1015.27 1015.68 1016.04 1016.31 1016.48 1016.54 1016.51 1016.39 1016.21 1015.98 1015.73 1015.48 1015.24 1015.00 1014.78 1014.55 1014.33 1014.10 1013.86
1006.97 1006.99 1006.83 1006.53 1006.15 1005.77 1005.45 1005.28 1005.30 1005.53 1005.97 1006.59 1007.35 1008.20 1009.07 1009.92 1010.70 1011.41 1012.04 1012.60 1013.12 1013.61 1014.10 1014.58 1015.05 1015.50 1015.91 1016.25 1016.50 1016.64 1016.67 1016.61 1016.45 1016.24 1015.98 1015.72 1015.47 1015.23 1015.02 1014.83 1014.64 1014.47 1014.28 1014.07
1006.11 1006.12 1005.99 1005.75 1005.44 1005.14 1004.92 1004.83 1004.92 1005.22 1005.71 1006.39 1007.19 1008.08 1008.99 1009.87 1010.70 1011.46 1012.13 1012.74 1013.30 1013.82 1014.34 1014.84 1015.33 1015.78 1016.18 1016.51 1016.73 1016.84 1016.84 1016.73 1016.53 1016.28 1015.99 1015.70 1015.44 1015.21 1015.02 1014.86 1014.73 1014.60 1014.47 1014.32
1005.03 1005.07 1005.00 1004.85 1004.66 1004.49 1004.40 1004.43 1004.62 1005.00 1005.56 1006.28 1007.11 1008.02 1008.95 1009.85 1010.70 1011.48 1012.19 1012.84 1013.44 1014.00 1014.55 1015.08 1015.59 1016.05 1016.45 1016.76 1016.95 1017.03 1016.99 1016.84 1016.61 1016.31 1015.99 1015.68 1015.40 1015.17 1015.00 1014.88 1014.80 1014.74 1014.68 1014.59
1003.83 1003.91 1003.94 1003.91 1003.88 1003.87 1003.93 1004.11 1004.42 1004.89 1005.51 1006.26 1007.11 1008.02 1008.94 1009.84 1010.69 1011.48 1012.22 1012.89 1013.52 1014.13 1014.71 1015.26 1015.78 1016.25 1016.65 1016.94 1017.12 1017.17 1017.10 1016.91 1016.64 1016.31 1015.96 1015.63 1015.34 1015.12 1014.97 1014.89 1014.86 1014.85 1014.86 1014.83
1002.64 1002.79 1002.92 1003.04 1003.18 1003.34 1003.58 1003.90 1004.33 1004.89 1005.56 1006.33 1007.18 1008.07 1008.96 1009.84 1010.68 1011.47 1012.21 1012.90 1013.55 1014.18 1014.79 1015.36 1015.89 1016.36 1016.75 1017.03 1017.18 1017.21 1017.11 1016.90 1016.60 1016.25 1015.88 1015.54 1015.26 1015.04 1014.91 1014.86 1014.87 1014.92 1014.98 1015.02
1001.57 1001.80 1002.05 1002.33 1002.62 1002.96 1003.35 1003.81 1004.35 1004.97 1005.68 1006.46 1007.29 1008.14 1009.00 1009.85 1010.66 1011.44 1012.18 1012.88 1013.55 1014.19 1014.80 1015.38 1015.90 1016.36 1016.73 1016.99 1017.12 1017.12 1017.00 1016.77 1016.46 1016.11 1015.74 1015.41 1015.13 1014.93 1014.82 1014.80 1014.84 1014.93 1015.02 1015.10
1000.71 1001.03 1001.39 1001.80 1002.25 1002.73 1003.25 1003.82 1004.43 1005.11 1005.83 1006.60 1007.40 1008.22 1009.05 1009.86 1010.65 1011.41 1012.14 1012.85 1013.52 1014.17 1014.78 1015.34 1015.85 1016.28 1016.62 1016.84 1016.95 1016.93 1016.79 1016.55 1016.25 1015.90 1015.55 1015.23 1014.97 1014.79 1014.70 1014.69 1014.75 1014.85 1014.96 1015.05
1000.08 1000.49 1000.95 1001.47 1002.03 1002.62 1003.23 1003.87 1004.54 1005.23 1005.95 1006.70 1007.48 1008.26 1009.05 1009.84 1010.61 1011.37 1012.10 1012.81 1013.49 1014.13 1014.73 1015.28 1015.76 1016.15 1016.45 1016.64 1016.71 1016.66 1016.52 1016.28 1015.98 1015.65 1015.33 1015.03 1014.80 1014.63 1014.55 1014.55 1014.61 1014.70 1014.80 1014.87
999.68 1000.16 1000.70 1001.30 1001.93 1002.58 1003.24 1003.91 1004.59 1005.29 1005.99 1006.72 1007.46 1008.22 1008.99 1009.76 1010.53 1011.30 1012.04 1012.76 1013.45 1014.09 1014.68 1015.21 1015.66 1016.01 1016.27 1016.42 1016.46 1016.39 1016.23 1016.00 1015.72 1015.41 1015.11 1014.84 1014.63 1014.48 1014.39 1014.38 1014.41 1014.47 1014.54 1014.58
999.45 999.98 1000.57 1001.21 1001.87 1002.54 1003.22 1003.88 1004.55 1005.22 1005.91 1006.60 1007.32 1008.06 1008.82 1009.60 1010.39 1011.18 1011.95 1012.70 1013.40 1014.05 1014.64 1015.15 1015.57 1015.89 1016.11 1016.22 1016.23 1016.15 1015.98 1015.76 1015.49 1015.21 1014.93 1014.68 1014.48 1014.33 1014.23 1014.19 1014.19 1014.20 1014.22 1014.20
999.32 999.87 1000.48 1001.13 1001.79 1002.45 1003.10 1003.74 1004.38 1005.03 1005.68 1006.35 1007.05 1007.79 1008.56 1009.36 1010.18 1011.00 1011.81 1012.60 1013.33 1014.01 1014.60 1015.11 1015.51 1015.81 1016.01 1016.09 1016.08 1015.98 1015.82 1015.60 1015.34 1015.08 1014.81 1014.58 1014.37 1014.21 1014.09 1014.01 1013.95 1013.91 1013.86 1013.79
999.22 999.78 1000.38 1001.00 1001.64 1002.26 1002.88 1003.49 1004.09 1004.70 1005.33 1005.99 1006.69 1007.43 1008.23 1009.06 1009.91 1010.78 1011.64 1012.47 1013.24 1013.95 1014.56 1015.08 1015.48 1015.77 1015.95 1016.03 1016.01 1015.91 1015.74 1015.52 1015.27 1015.01 1014.76 1014.52 1014.30 1014.12 1013.97 1013.85 1013.74 1013.64 1013.54 1013.41
999.13 999.66 1000.22 1000.81 1001.40 1001.99 1002.56 1003.13 1003.70 1004.29 1004.91 1005.57 1006.27 1007.04 1007.86 1008.73 1009.62 1010.54 1011.44 1012.31 1013.13 1013.86 1014.51 1015.04 1015.46 1015.76 1015.95 1016.02 1016.00 1015.90 1015.73 1015.52 1015.27 1015.02 1014.76 1014.51 1014.28 1014.07 1013.89 1013.72 1013.57 1013.43 1013.28 1013.11
999.02 999.51 1000.03 1000.57 1001.11 1001.65 1002.19 1002.74 1003.29 1003.87 1004.49 1005.16 1005.89 1006.67 1007.52 1008.42 1009.35 1010.30 1011.24 1012.15 1012.99 1013.76 1014.43 1014.99 1015.44 1015.76 1015.96 1016.05 1016.03 1015.94 1015.78 1015.57 1015.32 1015.06 1014.79 1014.53 1014.28 1014.06 1013.85 1013.66 1013.48 1013.30 1013.13 1012.94
998.94 999.37 999.83 1000.31 1000.80 1001.31 1001.83 1002.36 1002.91 1003.51 1004.14 1004.83 1005.58 1006.39 1007.26 1008.18 1009.13 1010.10 1011.06 1011.98 1012.85 1013.64 1014.33 1014.92 1015.39 1015.73 1015.95 1016.06 1016.07 1015.99 1015.84 1015.63 1015.39 1015.12 1014.85 1014.58 1014.32 1014.08 1013.86 1013.66 1013.47 1013.29 1013.11 1012.92
998.94 999.29 999.68 1000.10 1000.55 1001.03 1001.53 1002.06 1002.63 1003.24 1003.90 1004.61 1005.38 1006.22 1007.10 1008.03 1008.98 1009.95 1010.90 1011.83 1012.70 1013.49 1014.20 1014.80 1015.29 1015.66 1015.91 1016.04 1016.07 1016.01 1015.88 1015.68 1015.44 1015.18 1014.91 1014.64 1014.39 1014.15 1013.94 1013.74 1013.57 1013.40 1013.23 1013.05
999.07 999.33 999.64 1000.00 1000.40 1000.85 1001.34 1001.87 1002.46 1003.09 1003.78 1004.51 1005.31 1006.15 1007.03 1007.95 1008.89 1009.84 1010.77 1011.68 1012.53 1013.32 1014.03 1014.64 1015.14 1015.53 1015.81 1015.97 1016.03 1016.00 1015.88 1015.71 1015.48 1015.23 1014.97 1014.72 1014.48 1014.27 1014.08 1013.91 1013.76 1013.62 1013.47 1013.30
999.38 999.54 999.77 1000.05 1000.40 1000.81 1001.29 1001.82 1002.42 1003.07 1003.77 1004.53 1005.33 1006.17 1007.05 1007.95 1008.85 1009.76 1010.66 1011.53 1012.35 1013.12 1013.82 1014.42 1014.94 1015.35 1015.65 1015.85 1015.94 1015.93 1015.85 1015.70 1015.51 1015.28 1015.05 1014.82 1014.62 1014.43 1014.28 1014.14 1014.02 1013.91 1013.77 1013.61
999.86 999.93 1000.07 1000.28 1000.57 1000.94 1001.38 1001.91 1002.50 1003.15 1003.87 1004.63 1005.43 1006.26 1007.11 1007.97 1008.84 1009.70 1010.55 1011.37 1012.15 1012.89 1013.57 1014.17 1014.69 1015.11 1015.44 1015.66 1015.79 1015.83 1015.78 1015.68 1015.52 1015.34 1015.14 1014.95 1014.78 1014.64 1014.52 1014.42 1014.33 1014.23 1014.10 1013.92
1000.52 1000.50 1000.55 1000.69 1000.91 1001.22 1001.63 1002.13 1002.70 1003.34 1004.04 1004.79 1005.57 1006.37 1007.19 1008.01 1008.83 1009.64 1010.43 1011.20 1011.94 1012.64 1013.29 1013.88 1014.40 1014.84 1015.19 1015.45 1015.62 1015.70 1015.70 1015.64 1015.54 1015.40 1015.25 1015.11 1014.98 1014.87 1014.78 1014.71 1014.63 1014.53 1014.39 1014.18
1001.29 1001.20 1001.18 1001.24 1001.40 1001.66 1002.02 1002.47 1003.01 1003.62 1004.30 1005.01 1005.76 1006.53 1007.30 1008.07 1008.83 1009.58 1010.32 1011.03 1011.73 1012.39 1013.01 1013.59 1014.11 1014.56 1014.93 1015.23 1015.44 1015.57 1015.62 1015.62 1015.56 1015.48 1015.38 1015.28 1015.19 1015.11 1015.05 1014.98 1014.89 1014.77 1014.59 1014.33
Thickness
5724 5728 5728 5724 5725 5727 5725 5726 5723 5725 5727 5727 5727 5727 5727 5727 5727 5725 5722 5720 5717 5714 5711 5709 5706 5704 5702 5699 5696 5694 5691 5687 5683 5680 5677 5675 5674 5674 5675 5675 5676 5677 5678 5679
5712 5718 5719 5716 5720 5721 5719 5720 5720 5721 5720 5726 5725 5723 5720 5719 5718 5716 5714 5713 5710 5707 5704 5701 5699 5697 5695 5693 5690 5688 5685 5682 5680 5676 5673 5671 5670 5669 5669 5669 5670 5671 5672 5673
5705 5711 5709 5705 5714 5715 5713 5716 5715 5711 5713 5717 5713 5712 5711 5711 5710 5709 5707 5707 5704 5701 5697 5694 5692 5690 5688 5687 5685 5683 5680 5677 5675 5672 5669 5667 5667 5665 5664 5664 5665 5665 5666 5667
5702 5695 5683 5704 5716 5714 5709 5710 5712 5709 5709 5708 5706 5707 5707 5707 5704 5702 5701 5699 5697 5695 5692 5689 5687 5684 5682 5681 5679 5677 5675 5672 5670 5668 5666 5663 5662 5660 5660 5660 5660 5660 5661 5662
5693 5690 5692 5699 5704 5704 5700 5698 5704 5701 5700 5702 5702 5701 5701 5700 5699 5697 5695 5693 5692 5690 5687 5684 5682 5680 5677 5674 5673 5671 5669 5667 5665 5664 5661 5659 5657 5655 5655 5654 5655 5656 5656 5657
5685 5679 5677 5689 5699 5703 5696 5687 5696 5695 5692 5692 5692 5688 5690 5691 5691 5690 5689 5687 5685 5684 5681 5677 5675 5674 5671 5669 5667 5665 5663 5661 5660 5659 5656 5653 5651 5650 5650 5649 5650 5651 5651 5651
5677 5674 5682 5686 5692 5691 5674 5677 5687 5688 5686 5685 5683 5682 5683 5685 5683 5683 5681 5680 5678 5676 5673 5671 5669 5667 5664 5662 5660 5659 5658 5656 5654 5653 5651 5649 5647 5646 5645 5645 5645 5645 5644 5644
5672 5666 5668 5679 5681 5674 5672 5678 5679 5679 5679 5677 5676 5676 5676 5675 5674 5673 5672 5671 5670 5667 5665 5663 5661 5659 5657 5655 5654 5653 5652 5649 5647 5646 5646 5646 5642 5641 5640 5639 5640 5639 5638 5638
5669 5667 5668 5673 5671 5671 5670 5669 5670 5671 5671 5670 5668 5667 5667 5666 5665 5664 5664 5663 5662 5659 5657 5655 5654 5653 5650 5649 5648 5646 5645 5642 5641 5640 5640 5639 5638 5636 5635 5634 5636 5636 5635 5634
5658 5661 5662 5663 5664 5663 5664 5663 5664 5664 5664 5663 5661 5660 5659 5658 5657 5657 5656 5655 5654 5652 5650 5649 5648 5646 5645 5643 5642 5640 5638 5636 5636 5635 5634 5634 5633 5633 5631 5631 5631 5630 5629 5629
5649 5652 5654 5655 5656 5656 5656 5657 5657 5657 5656 5656 5654 5653 5652 5651 5650 5649 5649 5648 5647 5645 5644 5642 5641 5640 5639 5638 5636 5634 5632 5631 5631 5631 5630 5627 5627 5626 5625 5624 5623 5622 5623 5623
5643 5645 5645 5645 5649 5650 5649 5648 5648 5647 5646 5647 5646 5645 5645 5644 5643 5642 5641 5640 5639 5638 5637 5636 5635 5633 5633 5632 5630 5628 5627 5626 5627 5626 5625 5625 5623 5621 5616 5615 5613 5612 5611 5611
5640 5642 5642 5641 5642 5643 5642 5641 5641 5640 5638 5638 5638 5638 5637 5636 5636 5635 5634 5633 5632 5631 5631 5630 5629 5627 5627 5626 5624 5623 5621 5620 5621 5621 5621 5621 5620 5619 5616 5611 5608 5606 5605 5604
5635 5634 5633 5634 5634 5635 5635 5635 5634 5634 5633 5633 5632 5631 5630 5629 5628 5627 5627 5626 5626 5625 5625 5624 5623 5622 5622 5620 5619 5618 5617 5615 5614 5615 5616 5616 5615 5615 5614 5612 5610 5608 5603 5599
5628 5629 5628 5629 5628 5628 5628 5627 5626 5625 5625 5625 5625 5624 5622 5621 5621 5620 5620 5621 5620 5619 5619 5619 5618 5617 5616 5615 5614 5613 5612 5612 5611 5611 5612 5612 5611 5611 5610 5608 5607 5606 5604 5599
5622 5623 5623 5621 5620 5620 5620 5618 5617 5617 5617 5616 5616 5615 5616 5615 5615 5615 5614 5613 5612 5612 5612 5611 5611 5610 5610 5609 5608 5608 5607 5604 5603 5606 5607 5607 5607 5606 5605 5604 5603 5602 5601 5599
5614 5613 5613 5613 5613 5613 5612 5611 5611 5610 5610 5609 5608 5609 5609 5608 5608 5607 5607 5607 5606 5606 5605 5604 5604 5604 5603 5603 5603 5604 5604 5602 5596 5599 5601 5602 5601 5600 5600 5599 5599 5598 5596 5594
5611 5610 5610 5609 5608 5606 5606 5606 5606 5605 5604 5603 5603 5603 5602 5601 5601 5601 5601 5601 5599 5599 5599 5598 5598 5598 5597 5597 5596 5597 5598 5597 5596 5595 5595 5595 5594 5593 5593 5594 5594 5593 5592 5589
5606 5605 5604 5603 5602 5601 5600 5600 5599 5598 5597 5597 5596 5596 5596 5596 5596 5595 5595 5595 5594 5594 5594 5594 5590 5591 5592 5591 5589 5590 5591 5591 5590 5589 5589 5586 5586 5588 5588 5588 5588 5587 5587 5586
5599 5599 5598 5597 5596 5595 5594 5594 5593 5592 5592 5590 5589 5588 5588 5589 5590 5589 5589 5589 5590 5591 5591 5588 5587 5587 5587 5586 5582 5586 5586 5585 5585 5584 5583 5583 5582 5582 5582 5582 5582 5581 5579 5579
5592 5591 5590 5590 5589 5589 5588 5588 5587 5586 5585 5584 5583 5583 5583 5583 5584 5584 5584 5585 5585 5584 5584 5581 5582 5583 5582 5580 5576 5581 5581 5580 5579 5579 5578 5577 5576 5575 5575 5575 5575 5574 5573 5573
5584 5584 5583 5582 5582 5581 5582 5582 5581 5580 5579 5578 5578 5579 5579 5579 5579 5580 5580 5581 5581 5577 5579 5581 5580 5577 5576 5572 5575 5577 5576 5574 5573 5573 5572 5571 5570 5569 5569 5568 5568 5568 5567 5567
5578 5577 5576 5576 5575 5575 5575 5575 5575 5574 5573 5573 5573 5573 5574 5575 5578 5578 5578 5579 5578 5573 5574 5576 5573 5568 5565 5568 5571 5571 5570 5569 5568 5568 5567 5566 5566 5564 5563 5562 5562 5561 5561 5561
5572 5571 5571 5571 5570 5569 5569 5569 5569 5569 5569 5569 5570 5570 5570 5572 5574 5576 5576 5572 5570 5568 5571 5569 5564 5561 5559 5565 5566 5566 5565 5565 5564 5564 5564 5563 5562 5560 5559 5558 5557 5557 5556 5555
5567 5566 5566 5565 5564 5566 5565 5565 5565 5565 5565 5566 5567 5567 5568 5570 5571 5572 5571 5569 5566 5563 5566 5563 5559 5557 5558 5562 5562 5561 5561 5560 5560 5559 5558 5558 5558 5557 5555 5554 5553 5553 5551 5551
5562 5562 5562 5561 5561 5561 5562 5562 5562 5562 5563 5563 5564 5565 5565 5566 5566 5566 5565 5565 5564 5560 5562 5562 5560 5556 5559 5559 5558 5557 5556 5555 5555 5554 5553 5553 5553 5552 5552 5551 5550 5549 5548 5548
5558 5558 5557 5558 5559 5559 5559 5559 5559 5559 5560 5559 5559 5560 5561 5561 5561 5561 5561 5561 5561 5560 5559 5558 5558 5557 5556 5555 5553 5552 5551 5551 5550 5549 5549 5548 5548 5548 5547 5546 5546 5545 5544 5543